Springfield, IL

5:08 PM CST on February 24, 2017 (GMT -0600)
Capital

Weather History for KSPI - August, 2013

Change the Weather History Date:

Sunday, August 25, 2013

  Actual Average Record
Temperature  
Mean Temperature 75 °F 74 °F  
Max Temperature 88 °F 85 °F 100 °F (1936)
Min Temperature 61 °F 63 °F 45 °F (1958)
Degree Days  
Heating Degree Days 0 0  
Month to date heating degree days 5 0  
Since 1 June heating degree days 23 16  
Since 1 July heating degree days 11 1  
Cooling Degree Days 10 9  
Month to date cooling degree days 167 242  
Year to date cooling degree days 841 921  
Since 1 June cooling degree days 715 817  
Growing Degree Days 25 (Base 50)    
Moisture  
Dew Point 63 °F    
Average Humidity 67    
Maximum Humidity 90    
Minimum Humidity 43    
Precipitation  
Precipitation 0.00 in 0.10 in 1.95 in (1975)
Month to date precipitation 0.34 2.62  
Year to date precipitation 30.67 25.03  
Snow  
Snow 0.00 in 0.00 in 0.00 in ()
Month to date snowfall 0.0 0.0  
Since 1 June snowfall 0.0 0.0  
Since 1 July snowfall 0.0 0.0  
Snow Depth 0.00 in    
Sea Level Pressure  
Sea Level Pressure 30.22 in    
Wind  
Wind Speed 6 mph (South)    
Max Wind Speed 12 mph    
Max Gust Speed 17 mph    
Visibility 10 miles    
Events      
T = Trace of Precipitation, MM = Missing Value Source: NWS Daily Summary

Daily Weather History Graph

Daily Weather History Graph

Search for Another Location

Airport or City:

Trip Planner

Search our weather history database for the weather conditions in past years. The results will help you decide how hot, cold, wet, or windy it might be!

Date:

Astronomy

Aug. 25, 2013 Rise Set
Actual Time 6:20 AM CDT 7:40 PM CDT
Civil Twilight 5:52 AM CDT 8:08 PM CDT
Nautical Twilight 5:18 AM CDT 8:42 PM CDT
Astronomical Twilight 4:42 AM CDT 9:17 PM CDT
Moon 10:12 PM CDT (8/25) 11:21 AM CDT (8/25)
Length of Visible Light 14h 16m
Length of Day
13h 20m
Waning Gibbous, 75% of the Moon is Illuminated
Aug 25
Waning Gibbous
Aug 28
Last Quarter
Sep 5
New
Sep 12
First Quarter
Sep 19
Full

Hourly Weather History & Observations

Time (CDT) Temp. Heat Index Dew Point Humidity Pressure Visibility Wind Dir Wind Speed Gust Speed Precip Events Conditions
12:52 AM 70.0 °F - 63.0 °F 78% 30.20 in 10.0 mi SSE 5.8 mph - N/A   Clear
1:52 AM 68.0 °F - 62.1 °F 81% 30.20 in 10.0 mi South 6.9 mph - N/A   Clear
2:52 AM 66.9 °F - 62.1 °F 84% 30.21 in 10.0 mi South 8.1 mph - N/A   Clear
3:52 AM 66.0 °F - 61.0 °F 84% 30.22 in 10.0 mi South 5.8 mph - N/A   Clear
4:52 AM 64.9 °F - 60.1 °F 84% 30.23 in 10.0 mi South 3.5 mph - N/A   Clear
5:52 AM 64.9 °F - 59.0 °F 81% 30.25 in 10.0 mi South 4.6 mph - N/A   Clear
6:52 AM 63.0 °F - 59.0 °F 87% 30.26 in 10.0 mi South 3.5 mph - N/A   Clear
7:52 AM 72.0 °F - 62.1 °F 71% 30.27 in 10.0 mi SSW 4.6 mph - N/A   Clear
8:52 AM 75.9 °F - 63.0 °F 64% 30.27 in 10.0 mi SSW 3.5 mph - N/A   Clear
9:52 AM 80.1 °F 81.9 °F 64.9 °F 60% 30.27 in 10.0 mi SW 6.9 mph - N/A   Clear
10:52 AM 82.9 °F 85.4 °F 66.9 °F 58% 30.26 in 10.0 mi Variable 4.6 mph - N/A   Clear
11:52 AM 84.9 °F 86.1 °F 64.0 °F 49% 30.25 in 10.0 mi WSW 5.8 mph - N/A   Clear
12:52 PM 84.9 °F 86.6 °F 64.9 °F 51% 30.23 in 10.0 mi SW 5.8 mph - N/A   Clear
1:52 PM 87.1 °F 88.3 °F 64.0 °F 46% 30.22 in 10.0 mi South 9.2 mph - N/A   Clear
2:52 PM 87.1 °F 87.8 °F 63.0 °F 44% 30.21 in 10.0 mi South 8.1 mph - N/A   Clear
3:52 PM 87.1 °F 89.2 °F 66.0 °F 49% 30.20 in 10.0 mi SSE 10.4 mph - N/A   Clear
4:52 PM 86.0 °F 86.8 °F 63.0 °F 46% 30.19 in 10.0 mi SSW 6.9 mph - N/A   Clear
5:52 PM 84.0 °F 86.3 °F 66.0 °F 55% 30.19 in 10.0 mi South 6.9 mph - N/A   Clear
6:52 PM 81.0 °F 82.7 °F 64.9 °F 58% 30.18 in 10.0 mi South 6.9 mph - N/A   Clear
7:52 PM 75.9 °F - 66.0 °F 71% 30.18 in 10.0 mi SSE 5.8 mph - N/A   Clear
8:52 PM 73.0 °F - 64.9 °F 76% 30.19 in 10.0 mi South 6.9 mph - N/A   Clear
9:52 PM 71.1 °F - 64.0 °F 78% 30.19 in 10.0 mi South 6.9 mph - N/A   Clear
10:52 PM 72.0 °F - 63.0 °F 73% 30.19 in 10.0 mi South 6.9 mph - N/A   Clear
11:52 PM 70.0 °F - 63.0 °F 78% 30.19 in 10.0 mi South 5.8 mph - N/A   Clear